Tracking 35237 objects as of 5-Sep-2026
HD Live streaming from Space Station
objects crossing your sky now

SOYUZ 18 DEB


SOYUZ 18 DEB is no longer on orbit


NORAD ID: 8038
Int'l Code: 1975-044U
Launch date: May 24, 1975
Source: Commonwealth of Independent States (former USSR) (CIS)
Launch site: TYURATAM MISSILE AND SPACE COMPLEX (TTMTR)
Decay date: 1975-10-20

Note: This is SATELLITE DEBRIS
Your satellite tracking list
Your tracking list is empty




NASA's NSSDC Master Catalog

Two Line Element Set (TLE):
1 08038U 75044  U 75231.27366206  .00140113 +00000-0 +62990-3 0  9998
2 08038 051.6198 028.1365 0010950 210.7953 149.2367 15.83052739037261
Source of the keplerian elements: AFSPC